Weather History for Boise, ID

Change the Weather History Date:

Sunday, November 25, 2012

  Actual Average Record
Temperature  
Mean Temperature 38 °F 36 °F  
Max Temperature 47 °F 43 °F 67 °F (1960)
Min Temperature 29 °F 29 °F 3 °F (1985)
Degree Days  
Heating Degree Days 27 29  
Month to date heating degree days 488 598  
Since 1 July heating degree days 863 1104  
Cooling Degree Days 0 0  
Month to date cooling degree days 0 0  
Year to date cooling degree days 1274 942  
Moisture  
Dew Point 35 °F    
Average Humidity 75    
Maximum Humidity 100    
Minimum Humidity 49    
Precipitation  
Precipitation 0.17 in 0.05 in 0.60 in (1934)
Month to date precipitation 0.54 1.11  
Year to date precipitation 10.43 9.94  
Snow  
Snow 0.00 in 0.10 in 4.60 in (1973)
Month to date snowfall T 1.8  
Since 1 July snowfall T 1.9  
Snow Depth 0.00 in    
Sea Level Pressure  
Sea Level Pressure 30.12 in    
Wind  
Wind Speed 7 mph (WNW)    
Max Wind Speed 16 mph    
Max Gust Speed 18 mph    
Visibility 5 miles    
Events Fog , Rain , Snow    
T = Trace of Precipitation, MM = Missing Value Source: NWS Daily Summary

Daily Weather History Graph

Daily Weather History Graph

Search for Another Location

Airport:

Trip Planner

Search our weather history database for the weather conditions in past years. The results will help you decide how hot, cold, wet, or windy it might be!

Date:

Astronomy

Nov. 25, 2012 Rise Set
Actual Time 7:52 AM MST 5:11 PM MST
Civil Twilight 7:20 AM MST 5:43 PM MST
Nautical Twilight 6:44 AM MST 6:19 PM MST
Astronomical Twilight 6:10 AM MST 6:53 PM MST
Moon 3:34 PM MST (11/25) 5:06 AM MST (11/25)
Length of Visible Light 10h 23m
Length of Day
9h 19m
Waxing Gibbous, 93% of the Moon is Illuminated
Nov 25
Waxing Gibbous
Nov 28
Full
Dec 6
Last Quarter
Dec 13
New
Dec 19
First Quarter

Hourly Weather History & Observations

Time (MST) Temp. Windchill Dew Point Humidity Pressure Visibility Wind Dir Wind Speed Gust Speed Precip Events Conditions
12:18 AM 39.2 °F - 39.2 °F 100% 30.04 in 2.5 mi Calm Calm - 0.02 in Rain Light Rain
12:53 AM 39.9 °F - 39.0 °F 97% 30.07 in 2.5 mi Calm Calm - 0.06 in Rain Light Rain
1:14 AM 39.2 °F - 39.2 °F 100% 30.04 in 2.0 mi Calm Calm - 0.03 in Rain Light Rain
1:27 AM 39.2 °F 37.0 °F 39.2 °F 100% 30.03 in 2.0 mi NW 3.5 mph - 0.04 in Rain Light Rain
1:53 AM 39.9 °F 36.7 °F 37.9 °F 93% 30.06 in 2.5 mi WNW 4.6 mph - 0.06 in Rain Light Rain
2:17 AM 39.2 °F 34.2 °F 37.4 °F 93% 30.04 in 3.0 mi WNW 6.9 mph - 0.01 in Rain Light Rain
2:27 AM 39.2 °F 34.2 °F 37.4 °F 93% 30.05 in 2.5 mi WNW 6.9 mph - 0.02 in Rain Light Rain
2:40 AM 39.2 °F 33.6 °F 37.4 °F 93% 30.05 in 3.0 mi WNW 8.1 mph - 0.03 in Rain Light Rain
2:53 AM 39.0 °F 34.8 °F 37.9 °F 96% 30.08 in 2.5 mi WNW 5.8 mph - 0.03 in Rain Light Rain
3:10 AM 39.2 °F 37.0 °F 37.4 °F 93% 30.05 in 3.0 mi West 3.5 mph - 0.01 in Rain Light Rain
3:19 AM 39.2 °F 37.0 °F 37.4 °F 93% 30.05 in 2.5 mi West 3.5 mph - 0.02 in Rain Light Rain
3:26 AM 39.2 °F - 37.4 °F 93% 30.05 in 3.0 mi Calm Calm - 0.02 in Rain Light Rain
3:50 AM 39.2 °F 35.0 °F 37.4 °F 93% 30.05 in 2.0 mi West 5.8 mph - 0.02 in   Overcast
3:53 AM 39.0 °F 34.8 °F 37.9 °F 96% 30.07 in 2.0 mi West 5.8 mph - 0.02 in   Overcast
4:02 AM 39.2 °F 35.0 °F 37.4 °F 93% 30.05 in 1.5 mi West 5.8 mph - N/A   Overcast
4:22 AM 39.2 °F 35.0 °F 37.4 °F 93% 30.05 in 1.0 mi WNW 5.8 mph - N/A   Mist
4:31 AM 39.2 °F 34.2 °F 37.4 °F 93% 30.06 in 0.8 mi WNW 6.9 mph - N/A   Mist
4:53 AM 39.0 °F 32.8 °F 37.9 °F 96% 30.09 in 0.5 mi WNW 9.2 mph - N/A Fog Fog
5:12 AM 39.2 °F 34.2 °F 37.4 °F 93% 30.06 in 1.5 mi NW 6.9 mph - 0.00 in Rain Light Rain
5:23 AM 39.2 °F 34.2 °F 37.4 °F 93% 30.06 in 2.5 mi WNW 6.9 mph - 0.00 in   Overcast
5:49 AM 39.2 °F 34.2 °F 37.4 °F 93% 30.07 in 1.5 mi WNW 6.9 mph - 0.00 in   Overcast
5:53 AM 39.0 °F 34.8 °F 37.9 °F 96% 30.10 in 1.2 mi WNW 5.8 mph - 0.01 in   Overcast
6:07 AM 39.2 °F 35.9 °F 37.4 °F 93% 30.07 in 0.8 mi WNW 4.6 mph - N/A   Mist
6:16 AM 39.2 °F 34.2 °F 37.4 °F 93% 30.07 in 1.5 mi WNW 6.9 mph - N/A   Overcast
6:26 AM 39.2 °F 35.0 °F 37.4 °F 93% 30.07 in 2.5 mi WNW 5.8 mph - N/A   Overcast
6:44 AM 39.2 °F 35.9 °F 37.4 °F 93% 30.07 in 1.5 mi West 4.6 mph - N/A   Overcast
6:53 AM 39.0 °F 34.0 °F 37.9 °F 96% 30.11 in 1.2 mi WNW 6.9 mph - N/A   Overcast
7:07 AM 39.2 °F 34.2 °F 37.4 °F 93% 30.08 in 0.5 mi WNW 6.9 mph - N/A Fog Fog
7:30 AM 39.2 °F 32.5 °F 37.4 °F 93% 30.09 in 0.2 mi NW 10.4 mph - N/A Fog Fog
7:53 AM 39.0 °F 32.8 °F 37.9 °F 96% 30.13 in 0.5 mi NW 9.2 mph - N/A Fog Fog
8:07 AM 39.2 °F 33.6 °F 37.4 °F 93% 30.10 in 0.2 mi NW 8.1 mph - N/A Fog Fog
8:42 AM 39.2 °F 35.0 °F 37.4 °F 93% 30.11 in 0.5 mi WNW 5.8 mph - N/A Fog Fog
8:53 AM 39.0 °F 34.8 °F 37.9 °F 96% 30.15 in 1.5 mi WNW 5.8 mph - N/A   Overcast
9:00 AM 39.2 °F 35.9 °F 37.4 °F 93% 30.12 in 3.0 mi NW 4.6 mph - N/A   Overcast
9:53 AM 39.0 °F 34.0 °F 37.9 °F 96% 30.17 in 5.0 mi WNW 6.9 mph - N/A   Overcast
10:51 AM 41.0 °F 37.1 °F 37.4 °F 87% 30.15 in 10.0 mi WNW 5.8 mph - N/A   Overcast
10:53 AM 41.0 °F 37.1 °F 37.0 °F 86% 30.17 in 10.0 mi West 5.8 mph - N/A   Overcast
11:07 AM 42.8 °F 37.0 °F 37.4 °F 81% 30.14 in 10.0 mi WNW 10.4 mph - N/A   Mostly Cloudy
11:33 AM 42.8 °F 37.0 °F 35.6 °F 76% 30.15 in 10.0 mi NW 10.4 mph - N/A   Mostly Cloudy
11:51 AM 42.8 °F 37.5 °F 35.6 °F 76% 30.15 in 10.0 mi WNW 9.2 mph - N/A   Partly Cloudy
11:53 AM 44.1 °F 38.6 °F 36.0 °F 73% 30.17 in 10.0 mi WNW 10.4 mph - N/A   Partly Cloudy
12:53 PM 44.1 °F 39.0 °F 35.1 °F 71% 30.16 in 10.0 mi NW 9.2 mph - N/A   Scattered Clouds
1:53 PM 46.0 °F 40.2 °F 34.0 °F 63% 30.14 in 10.0 mi WNW 12.7 mph - N/A   Clear
2:53 PM 46.9 °F - 28.9 °F 50% 30.14 in 10.0 mi NW 12.7 mph - N/A   Scattered Clouds
3:53 PM 45.0 °F 39.7 °F 28.9 °F 53% 30.16 in 10.0 mi WNW 10.4 mph - N/A   Clear
4:53 PM 43.0 °F 37.2 °F 27.0 °F 53% 30.17 in 10.0 mi WNW 10.4 mph - N/A   Clear
5:53 PM 39.9 °F 36.7 °F 27.0 °F 60% 30.19 in 10.0 mi WNW 4.6 mph - N/A   Clear
6:53 PM 37.9 °F 35.5 °F 28.0 °F 68% 30.20 in 10.0 mi WNW 3.5 mph - 0.00 in Snow Light Snow
7:53 PM 37.0 °F 30.4 °F 28.0 °F 70% 30.22 in 10.0 mi West 9.2 mph - 0.00 in   Clear
8:53 PM 35.1 °F 31.0 °F 28.0 °F 76% 30.23 in 10.0 mi West 4.6 mph - N/A   Clear
9:53 PM 32.0 °F - 27.0 °F 82% 30.25 in 10.0 mi Calm Calm - N/A   Clear
10:53 PM 30.0 °F 26.5 °F 25.0 °F 82% 30.25 in 10.0 mi South 3.5 mph - N/A   Clear
11:53 PM 30.0 °F - 25.0 °F 82% 30.26 in 10.0 mi Calm Calm - N/A   Clear